Time,TemperatureF,DewpointF,PressureIn,WindDirection,WindDirectionDegrees,WindSpeedMPH,WindSpeedGustMPH,Humidity,HourlyPrecipIn,Conditions,Clouds,dailyrainin,SoftwareType,DateUTC
2013-01-21 00:02:00,19.0,15.0,-100.00,ESE,114,2.0,4.0,81,-99.99,,,-99.99,,2013-01-21 08:02:00,
2013-01-21 00:13:00,19.0,15.0,-100.00,ESE,107,3.0,4.0,85,-99.99,,,-99.99,,2013-01-21 08:13:00,
2013-01-21 00:22:00,19.0,15.0,-100.00,ESE,107,3.0,4.0,85,-99.99,,,-99.99,,2013-01-21 08:22:00,
2013-01-21 00:32:00,17.0,14.0,-100.00,SE,138,1.0,2.0,85,-99.99,,,-99.99,,2013-01-21 08:32:00,
2013-01-21 00:42:00,17.0,14.0,-100.00,SE,138,1.0,2.0,85,-99.99,,,-99.99,,2013-01-21 08:42:00,
2013-01-21 00:53:00,19.0,15.0,-100.00,ESE,106,4.0,5.0,85,-99.99,,,-99.99,,2013-01-21 08:53:00,
2013-01-21 01:02:00,19.0,15.0,-100.00,ESE,106,4.0,5.0,85,-99.99,,,-99.99,,2013-01-21 09:02:00,
2013-01-21 01:12:00,19.0,14.0,-100.00,ESE,113,5.0,7.0,83,-99.99,,,-99.99,,2013-01-21 09:12:00,
2013-01-21 01:22:00,19.0,14.0,-100.00,ESE,113,5.0,7.0,83,-99.99,,,-99.99,,2013-01-21 09:22:00,
2013-01-21 01:33:00,19.0,14.0,-100.00,East,88,1.0,2.0,82,-99.99,,,-99.99,,2013-01-21 09:33:00,
2013-01-21 01:42:00,19.0,14.0,-100.00,East,88,1.0,2.0,82,-99.99,,,-99.99,,2013-01-21 09:42:00,
2013-01-21 01:53:00,18.0,13.0,-100.00,NNE,25,0.0,0.0,82,-99.99,,,-99.99,,2013-01-21 09:53:00,
2013-01-21 02:02:00,18.0,13.0,-100.00,NNE,25,0.0,0.0,82,-99.99,,,-99.99,,2013-01-21 10:02:00,
2013-01-21 02:12:00,15.0,12.0,-100.00,SW,232,3.0,5.0,86,-99.99,,,-99.99,,2013-01-21 10:12:00,
2013-01-21 02:22:00,15.0,12.0,-100.00,SW,232,3.0,5.0,86,-99.99,,,-99.99,,2013-01-21 10:22:00,
2013-01-21 02:32:00,16.0,13.0,-100.00,NE,54,0.0,2.0,90,-99.99,,,-99.99,,2013-01-21 10:32:00,
2013-01-21 02:42:00,16.0,13.0,-100.00,NE,54,0.0,2.0,90,-99.99,,,-99.99,,2013-01-21 10:42:00,
2013-01-21 02:52:00,16.0,13.0,-100.00,SE,126,2.0,4.0,89,-99.99,,,-99.99,,2013-01-21 10:52:00,
2013-01-21 03:02:00,16.0,13.0,-100.00,SE,126,2.0,4.0,89,-99.99,,,-99.99,,2013-01-21 11:02:00,
2013-01-21 03:12:00,15.0,13.0,-100.00,South,179,0.0,1.0,91,-99.99,,,-99.99,,2013-01-21 11:12:00,
2013-01-21 03:22:00,15.0,13.0,-100.00,South,179,0.0,1.0,91,-99.99,,,-99.99,,2013-01-21 11:22:00,
2013-01-21 03:32:00,15.0,13.0,-100.00,ESE,117,3.0,5.0,91,-99.99,,,-99.99,,2013-01-21 11:32:00,
2013-01-21 03:42:00,15.0,13.0,-100.00,ESE,117,3.0,5.0,91,-99.99,,,-99.99,,2013-01-21 11:42:00,
2013-01-21 03:53:00,15.0,13.0,-100.00,ESE,112,5.0,6.0,89,-99.99,,,-99.99,,2013-01-21 11:53:00,
2013-01-21 04:02:00,15.0,13.0,-100.00,ESE,112,5.0,6.0,89,-99.99,,,-99.99,,2013-01-21 12:02:00,
2013-01-21 04:12:00,16.0,12.0,-100.00,ESE,106,3.0,4.0,87,-99.99,,,-99.99,,2013-01-21 12:12:00,
2013-01-21 04:22:00,16.0,12.0,-100.00,ESE,106,3.0,4.0,87,-99.99,,,-99.99,,2013-01-21 12:22:00,
2013-01-21 04:32:00,16.0,12.0,-100.00,ESE,106,3.0,4.0,87,-99.99,,,-99.99,,2013-01-21 12:32:00,
2013-01-21 04:53:00,14.0,12.0,-100.00,SE,131,3.0,4.0,88,-99.99,,,-99.99,,2013-01-21 12:53:00,
2013-01-21 05:02:00,14.0,12.0,-100.00,SE,131,3.0,4.0,88,-99.99,,,-99.99,,2013-01-21 13:02:00,
2013-01-21 05:12:00,14.0,11.0,-100.00,ESE,117,3.0,4.0,88,-99.99,,,-99.99,,2013-01-21 13:12:00,
2013-01-21 05:22:00,14.0,11.0,-100.00,ESE,117,3.0,4.0,88,-99.99,,,-99.99,,2013-01-21 13:22:00,
2013-01-21 05:33:00,15.0,12.0,-100.00,ESE,109,4.0,5.0,87,-99.99,,,-99.99,,2013-01-21 13:33:00,
2013-01-21 05:42:00,15.0,12.0,-100.00,ESE,109,4.0,5.0,87,-99.99,,,-99.99,,2013-01-21 13:42:00,
2013-01-21 05:53:00,15.0,12.0,-100.00,ESE,103,5.0,6.0,86,-99.99,,,-99.99,,2013-01-21 13:53:00,
2013-01-21 06:03:00,15.0,12.0,-100.00,ESE,103,5.0,6.0,86,-99.99,,,-99.99,,2013-01-21 14:03:00,
2013-01-21 06:12:00,15.0,11.0,-100.00,East,82,2.0,4.0,84,-99.99,,,-99.99,,2013-01-21 14:12:00,
2013-01-21 06:22:00,15.0,11.0,-100.00,East,82,2.0,4.0,84,-99.99,,,-99.99,,2013-01-21 14:22:00,
2013-01-21 06:32:00,15.0,11.0,-100.00,ENE,58,0.0,2.0,85,-99.99,,,-99.99,,2013-01-21 14:32:00,
2013-01-21 06:43:00,15.0,11.0,-100.00,ENE,58,0.0,2.0,85,-99.99,,,-99.99,,2013-01-21 14:43:00,
2013-01-21 06:53:00,14.0,10.0,-100.00,East,100,1.0,3.0,85,-99.99,,,-99.99,,2013-01-21 14:53:00,
2013-01-21 07:03:00,14.0,10.0,-100.00,East,100,1.0,3.0,85,-99.99,,,-99.99,,2013-01-21 15:03:00,
2013-01-21 07:13:00,13.0,10.0,-100.00,SE,124,1.0,2.0,87,-99.99,,,-99.99,,2013-01-21 15:13:00,
2013-01-21 07:22:00,13.0,10.0,-100.00,SE,124,1.0,2.0,87,-99.99,,,-99.99,,2013-01-21 15:22:00,
2013-01-21 07:33:00,13.0,11.0,-100.00,SE,138,2.0,3.0,90,-99.99,,,-99.99,,2013-01-21 15:33:00,
2013-01-21 07:42:00,13.0,11.0,-100.00,SE,138,2.0,3.0,90,-99.99,,,-99.99,,2013-01-21 15:42:00,
2013-01-21 07:53:00,13.0,10.0,-100.00,SE,136,1.0,3.0,89,-99.99,,,-99.99,,2013-01-21 15:53:00,
2013-01-21 08:03:00,13.0,10.0,-100.00,SE,136,1.0,3.0,89,-99.99,,,-99.99,,2013-01-21 16:03:00,
2013-01-21 08:12:00,13.0,11.0,-100.00,SE,138,2.0,3.0,91,-99.99,,,-99.99,,2013-01-21 16:12:00,
2013-01-21 08:23:00,13.0,11.0,-100.00,SE,138,2.0,3.0,91,-99.99,,,-99.99,,2013-01-21 16:23:00,
2013-01-21 08:33:00,16.0,12.0,-100.00,ESE,104,3.0,5.0,84,-99.99,,,-99.99,,2013-01-21 16:33:00,
2013-01-21 08:43:00,16.0,12.0,-100.00,ESE,104,3.0,5.0,84,-99.99,,,-99.99,,2013-01-21 16:43:00,
2013-01-21 08:53:00,19.0,14.0,-100.00,NE,40,1.0,3.0,80,-99.99,,,-99.99,,2013-01-21 16:53:00,
2013-01-21 09:02:00,19.0,14.0,-100.00,NE,40,1.0,3.0,80,-99.99,,,-99.99,,2013-01-21 17:02:00,
2013-01-21 09:12:00,20.0,15.0,-100.00,NW,323,2.0,3.0,80,-99.99,,,-99.99,,2013-01-21 17:12:00,
2013-01-21 09:22:00,20.0,15.0,-100.00,NW,323,2.0,3.0,80,-99.99,,,-99.99,,2013-01-21 17:22:00,
2013-01-21 09:33:00,21.0,14.0,-100.00,WNW,282,3.0,4.0,74,-99.99,,,-99.99,,2013-01-21 17:33:00,
2013-01-21 09:42:00,21.0,14.0,-100.00,WNW,282,3.0,4.0,74,-99.99,,,-99.99,,2013-01-21 17:42:00,
2013-01-21 09:53:00,23.0,15.0,-100.00,West,280,2.0,4.0,72,-99.99,,,-99.99,,2013-01-21 17:53:00,
2013-01-21 10:02:00,23.0,15.0,-100.00,West,280,2.0,4.0,72,-99.99,,,-99.99,,2013-01-21 18:02:00,
2013-01-21 10:12:00,24.0,15.0,-100.00,West,280,1.0,4.0,68,-99.99,,,-99.99,,2013-01-21 18:12:00,
2013-01-21 10:22:00,24.0,15.0,-100.00,West,280,1.0,4.0,68,-99.99,,,-99.99,,2013-01-21 18:22:00,
2013-01-21 10:33:00,26.0,16.0,-100.00,NNW,340,1.0,3.0,67,-99.99,,,-99.99,,2013-01-21 18:33:00,
2013-01-21 10:42:00,26.0,16.0,-100.00,NNW,340,1.0,3.0,67,-99.99,,,-99.99,,2013-01-21 18:42:00,
2013-01-21 10:53:00,27.0,18.0,-100.00,WNW,295,2.0,4.0,66,-99.99,,,-99.99,,2013-01-21 18:53:00,
2013-01-21 11:03:00,27.0,18.0,-100.00,WNW,295,2.0,4.0,66,-99.99,,,-99.99,,2013-01-21 19:03:00,
2013-01-21 11:12:00,29.0,18.0,-100.00,West,271,2.0,4.0,64,-99.99,,,-99.99,,2013-01-21 19:12:00,
2013-01-21 11:22:00,29.0,18.0,-100.00,West,271,2.0,4.0,64,-99.99,,,-99.99,,2013-01-21 19:22:00,
2013-01-21 11:33:00,30.0,17.0,-100.00,WSW,251,1.0,3.0,58,-99.99,,,-99.99,,2013-01-21 19:33:00,
2013-01-21 11:42:00,30.0,17.0,-100.00,WSW,251,1.0,3.0,58,-99.99,,,-99.99,,2013-01-21 19:42:00,
2013-01-21 11:53:00,32.0,17.0,-100.00,West,263,2.0,4.0,55,-99.99,,,-99.99,,2013-01-21 19:53:00,
2013-01-21 12:02:00,32.0,17.0,-100.00,West,263,2.0,4.0,55,-99.99,,,-99.99,,2013-01-21 20:02:00,
2013-01-21 12:12:00,33.0,17.0,-100.00,West,265,2.0,4.0,52,-99.99,,,-99.99,,2013-01-21 20:12:00,
2013-01-21 12:22:00,33.0,17.0,-100.00,West,265,2.0,4.0,52,-99.99,,,-99.99,,2013-01-21 20:22:00,
2013-01-21 12:32:00,33.0,17.0,-100.00,West,265,2.0,4.0,52,-99.99,,,-99.99,,2013-01-21 20:32:00,
2013-01-21 12:53:00,35.0,18.0,-100.00,WSW,239,2.0,6.0,48,-99.99,,,-99.99,,2013-01-21 20:53:00,
2013-01-21 13:03:00,35.0,18.0,-100.00,WSW,239,2.0,6.0,48,-99.99,,,-99.99,,2013-01-21 21:03:00,
2013-01-21 13:12:00,36.0,18.0,-100.00,WSW,257,2.0,5.0,46,-99.99,,,-99.99,,2013-01-21 21:12:00,
2013-01-21 13:22:00,36.0,18.0,-100.00,WSW,257,2.0,5.0,46,-99.99,,,-99.99,,2013-01-21 21:22:00,
2013-01-21 13:33:00,37.0,18.0,-100.00,West,272,3.0,6.0,45,-99.99,,,-99.99,,2013-01-21 21:33:00,
2013-01-21 13:43:00,37.0,18.0,-100.00,West,272,3.0,6.0,45,-99.99,,,-99.99,,2013-01-21 21:43:00,
2013-01-21 13:53:00,38.0,18.0,-100.00,West,280,2.0,4.0,43,-99.99,,,-99.99,,2013-01-21 21:53:00,
2013-01-21 14:03:00,38.0,18.0,-100.00,West,280,2.0,4.0,43,-99.99,,,-99.99,,2013-01-21 22:03:00,
2013-01-21 14:12:00,40.0,19.0,-100.00,West,271,2.0,5.0,42,-99.99,,,-99.99,,2013-01-21 22:12:00,
2013-01-21 14:22:00,40.0,19.0,-100.00,West,271,2.0,5.0,42,-99.99,,,-99.99,,2013-01-21 22:22:00,
2013-01-21 14:33:00,40.0,17.0,-100.00,West,268,2.0,5.0,39,-99.99,,,-99.99,,2013-01-21 22:33:00,
2013-01-21 14:42:00,40.0,17.0,-100.00,West,268,2.0,5.0,39,-99.99,,,-99.99,,2013-01-21 22:42:00,
2013-01-21 14:53:00,42.0,17.0,-100.00,NE,49,2.0,4.0,37,-99.99,,,-99.99,,2013-01-21 22:53:00,
2013-01-21 15:02:00,42.0,17.0,-100.00,NE,49,2.0,4.0,37,-99.99,,,-99.99,,2013-01-21 23:02:00,
2013-01-21 15:12:00,42.0,17.0,-100.00,West,272,1.0,3.0,36,-99.99,,,-99.99,,2013-01-21 23:12:00,
2013-01-21 15:22:00,42.0,17.0,-100.00,West,272,1.0,3.0,36,-99.99,,,-99.99,,2013-01-21 23:22:00,
2013-01-21 15:33:00,42.0,18.0,-100.00,WSW,254,2.0,4.0,37,-99.99,,,-99.99,,2013-01-21 23:33:00,
2013-01-21 15:42:00,42.0,18.0,-100.00,WSW,254,2.0,4.0,37,-99.99,,,-99.99,,2013-01-21 23:42:00,
2013-01-21 15:53:00,42.0,19.0,-100.00,West,270,2.0,4.0,39,-99.99,,,-99.99,,2013-01-21 23:53:00,
2013-01-21 16:02:00,42.0,19.0,-100.00,West,270,2.0,4.0,39,-99.99,,,-99.99,,2013-01-22 00:02:00,
2013-01-21 16:12:00,42.0,20.0,-100.00,West,268,3.0,4.0,42,-99.99,,,-99.99,,2013-01-22 00:12:00,
2013-01-21 16:22:00,42.0,20.0,-100.00,West,268,3.0,4.0,42,-99.99,,,-99.99,,2013-01-22 00:22:00,
2013-01-21 16:32:00,43.0,21.0,-100.00,WSW,251,2.0,3.0,41,-99.99,,,-99.99,,2013-01-22 00:32:00,
2013-01-21 16:42:00,43.0,21.0,-100.00,WSW,251,2.0,3.0,41,-99.99,,,-99.99,,2013-01-22 00:42:00,
2013-01-21 16:53:00,42.0,22.0,-100.00,WSW,243,2.0,3.0,45,-99.99,,,-99.99,,2013-01-22 00:53:00,
2013-01-21 17:02:00,42.0,22.0,-100.00,WSW,243,2.0,3.0,45,-99.99,,,-99.99,,2013-01-22 01:02:00,
2013-01-21 17:12:00,39.0,21.0,-100.00,West,275,1.0,3.0,48,-99.99,,,-99.99,,2013-01-22 01:12:00,
2013-01-21 17:22:00,39.0,21.0,-100.00,West,275,1.0,3.0,48,-99.99,,,-99.99,,2013-01-22 01:22:00,
2013-01-21 17:32:00,39.0,21.0,-100.00,West,275,1.0,3.0,48,-99.99,,,-99.99,,2013-01-22 01:32:00,
2013-01-21 17:52:00,34.0,20.0,-100.00,SSW,195,1.0,2.0,55,-99.99,,,-99.99,,2013-01-22 01:52:00,
2013-01-21 18:02:00,34.0,20.0,-100.00,SSW,195,1.0,2.0,55,-99.99,,,-99.99,,2013-01-22 02:02:00,
2013-01-21 18:12:00,34.0,21.0,-100.00,East,99,2.0,5.0,59,-99.99,,,-99.99,,2013-01-22 02:12:00,
2013-01-21 18:22:00,34.0,21.0,-100.00,East,99,2.0,5.0,59,-99.99,,,-99.99,,2013-01-22 02:22:00,
2013-01-21 18:32:00,32.0,21.0,-100.00,ESE,123,2.0,4.0,66,-99.99,,,-99.99,,2013-01-22 02:32:00,
2013-01-21 18:42:00,32.0,21.0,-100.00,ESE,123,2.0,4.0,66,-99.99,,,-99.99,,2013-01-22 02:42:00,
2013-01-21 18:53:00,30.0,22.0,-100.00,ESE,106,1.0,3.0,71,-99.99,,,-99.99,,2013-01-22 02:53:00,
2013-01-21 19:02:00,30.0,22.0,-100.00,ESE,106,1.0,3.0,71,-99.99,,,-99.99,,2013-01-22 03:02:00,
2013-01-21 19:12:00,30.0,22.0,-100.00,East,92,2.0,4.0,71,-99.99,,,-99.99,,2013-01-22 03:12:00,
2013-01-21 19:22:00,30.0,22.0,-100.00,East,92,2.0,4.0,71,-99.99,,,-99.99,,2013-01-22 03:22:00,
2013-01-21 19:32:00,28.0,21.0,-100.00,ESE,109,4.0,5.0,74,-99.99,,,-99.99,,2013-01-22 03:32:00,
2013-01-21 19:42:00,28.0,21.0,-100.00,ESE,109,4.0,5.0,74,-99.99,,,-99.99,,2013-01-22 03:42:00,
2013-01-21 19:52:00,28.0,21.0,-100.00,ESE,102,4.0,6.0,74,-99.99,,,-99.99,,2013-01-22 03:52:00,
2013-01-21 20:02:00,28.0,21.0,-100.00,ESE,102,4.0,6.0,74,-99.99,,,-99.99,,2013-01-22 04:02:00,
2013-01-21 20:12:00,28.0,21.0,-100.00,ESE,104,3.0,5.0,73,-99.99,,,-99.99,,2013-01-22 04:12:00,
2013-01-21 20:22:00,28.0,21.0,-100.00,ESE,104,3.0,5.0,73,-99.99,,,-99.99,,2013-01-22 04:22:00,
2013-01-21 20:32:00,28.0,21.0,-100.00,ESE,104,3.0,5.0,73,-99.99,,,-99.99,,2013-01-22 04:32:00,
2013-01-21 20:42:00,24.0,20.0,-100.00,SE,136,1.0,4.0,85,-99.99,,,-99.99,,2013-01-22 04:42:00,
2013-01-21 21:03:00,26.0,21.0,-100.00,ESE,120,4.0,5.0,80,-99.99,,,-99.99,,2013-01-22 05:03:00,
2013-01-21 21:12:00,24.0,20.0,-100.00,SE,136,1.0,4.0,85,-99.99,,,-99.99,,2013-01-22 05:12:00,
2013-01-21 21:22:00,24.0,20.0,-100.00,SE,136,1.0,4.0,85,-99.99,,,-99.99,,2013-01-22 05:22:00,
2013-01-21 21:32:00,24.0,20.0,-100.00,SE,136,1.0,4.0,85,-99.99,,,-99.99,,2013-01-22 05:32:00,
2013-01-21 21:53:00,25.0,20.0,-100.00,ESE,102,2.0,4.0,81,-99.99,,,-99.99,,2013-01-22 05:53:00,
2013-01-21 22:02:00,25.0,20.0,-100.00,ESE,102,2.0,4.0,81,-99.99,,,-99.99,,2013-01-22 06:02:00,
2013-01-21 22:12:00,25.0,19.0,-100.00,ESE,106,4.0,6.0,79,-99.99,,,-99.99,,2013-01-22 06:12:00,
2013-01-21 22:22:00,25.0,19.0,-100.00,ESE,106,4.0,6.0,79,-99.99,,,-99.99,,2013-01-22 06:22:00,
2013-01-21 22:32:00,23.0,19.0,-100.00,SSE,151,2.0,4.0,84,-99.99,,,-99.99,,2013-01-22 06:32:00,
2013-01-21 22:42:00,23.0,19.0,-100.00,SSE,151,2.0,4.0,84,-99.99,,,-99.99,,2013-01-22 06:42:00,
2013-01-21 22:52:00,23.0,19.0,-100.00,ESE,106,1.0,4.0,84,-99.99,,,-99.99,,2013-01-22 06:52:00,
2013-01-21 23:02:00,23.0,19.0,-100.00,ESE,106,1.0,4.0,84,-99.99,,,-99.99,,2013-01-22 07:02:00,
2013-01-21 23:12:00,23.0,19.0,-100.00,ESE,110,4.0,5.0,83,-99.99,,,-99.99,,2013-01-22 07:12:00,
2013-01-21 23:22:00,23.0,19.0,-100.00,ESE,110,4.0,5.0,83,-99.99,,,-99.99,,2013-01-22 07:22:00,
2013-01-21 23:32:00,22.0,18.0,-100.00,SSE,147,1.0,4.0,84,-99.99,,,-99.99,,2013-01-22 07:32:00,
2013-01-21 23:42:00,22.0,18.0,-100.00,SSE,147,1.0,4.0,84,-99.99,,,-99.99,,2013-01-22 07:42:00,
2013-01-21 23:52:00,21.0,18.0,-100.00,South,169,0.0,2.0,88,-99.99,,,-99.99,,2013-01-22 07:52:00,